Find ION SCV Magnificent Monica

NORAD ID: 60573 Int'l Des: 2024-149 Owner: DORBIT Country: I operational
LEOCIRCULARRETROGRADESSO

リアルタイム位置

3D地球を読み込み中...

ION SCV Magnificent Monicaについて

説明を読み込み中...

次回通過

Passes for default location (London). Set your location on the main map for personalized predictions.

高度履歴

Loading altitude history...

軌道要素

1 60573U 24149DK 26106.92172947 .00000297 00000-0 32436-4 0 9997
2 60573 97.6799 182.2305 0001941 299.1945 60.9081 14.94807532 90764
Epoch: Apr 16, 2026 • Age: 5 hours

現在のステータス

高度 592.7 km
速度 7.57 km/s
衛星直下点 51.81°N, 114.33°E
打ち上げ日 Aug 16, 2024
運用期間 1.6 years
タイプ other

技術仕様

分類 Payload
質量 150.00 kg
乾燥質量 150.00 kg
総質量 220.00 kg
長さ 0.40 m
直径 0.40 m
スパン 0.40 m
形状 Box
製造者 DORBIT
バスタイプ ION-SC
フェーズステータス In Orbit
所有者/国 DORBIT/I

Most Searched